EW2142 Weather Reports


Display with metric or nautical units.
time (UTC)temp
F
wind
direction
speed
MPH
gust
MPH
rain 1hr
in
rain 24hr
in
rain mn
in
humidity
%
barometer
mb
20260505072003 49 308 0.0 4.0 0.00 0.01 0.00 52 1009.6
20260505071503 48 307 0.0 4.0 0.00 0.01 0.00 54 1009.5
20260505071002 48 309 0.0 3.0 0.00 0.01 0.00 52 1009.5
20260505070502 48 313 0.0 3.0 0.00 0.01 0.00 54 1009.6
20260505070003 48 283 0.0 1.0 0.00 0.01 0.00 54 1009.6
20260505065502 47 283 0.0 2.0 0.00 0.01 0.00 54 1009.6
20260505065003 47 285 0.0 2.0 0.00 0.01 0.00 54 1009.5
20260505064503 47 298 0.0 1.0 0.00 0.01 0.00 55 1009.5
20260505064003 46 297 0.0 1.0 0.00 0.01 0.00 56 1009.5
20260505063503 45 297 0.0 1.0 0.00 0.01 0.00 56 1009.4
20260505063003 45 299 0.0 2.0 0.00 0.01 0.00 58 1009.5
20260505062503 45 300 0.0 2.0 0.00 0.01 0.00 58 1009.4
20260505062003 44 156 0.0 1.0 0.00 0.01 0.00 59 1009.4
20260505061503 44 282 0.0 1.0 0.00 0.01 0.00 59 1009.4
20260505061002 44 298 0.0 1.0 0.00 0.01 0.00 60 1009.4
20260505060524 44 315 0.0 1.0 0.00 0.01 0.00 61 1009.4
20260505060003 44 289 0.0 1.0 0.00 0.01 0.00 62 1009.4
20260505055503 44 289 0.0 1.0 0.00 0.01 0.00 62 1009.4
20260505055003 44 0 0.0 0.0 0.00 0.01 0.00 62 1009.3
20260505054524 44 291 0.0 2.0 0.00 0.01 0.00 63 1009.4
20260505054003 43 291 0.0 2.0 0.00 0.01 0.00 63 1009.3
20260505053524 43 305 0.0 1.0 0.00 0.01 0.00 63 1009.3
20260505053003 43 306 0.0 1.0 0.00 0.01 0.00 62 1009.2
20260505052503 43 303 0.0 1.0 0.00 0.01 0.00 63 1009.1
20260505052024 43 0 0.0 0.0 0.00 0.01 0.00 63 1009.2
20260505051503 42 0 0.0 0.0 0.00 0.01 0.00 64 1009.2
20260505051002 42 152 0.0 1.0 0.00 0.01 0.00 65 1009.1
20260505050503 42 152 0.0 1.0 0.00 0.01 0.00 67 1009.0
20260505041503 40 0 0.0 0.0 0.00 0.01 0.00 52 1008.6
20260505041003 40 0 0.0 0.0 0.00 0.01 0.00 51 1008.5
20260505040502 41 0 0.0 0.0 0.00 0.01 0.00 50 1008.5
20260505040003 41 0 0.0 0.0 0.00 0.01 0.00 51 1008.5
20260505035503 41 0 0.0 0.0 0.00 0.01 0.00 51 1008.4
20260505035003 41 0 0.0 0.0 0.00 0.01 0.00 51 1008.4
20260505034503 41 0 0.0 0.0 0.00 0.01 0.00 50 1008.3
20260505034003 41 0 0.0 0.0 0.00 0.01 0.00 51 1008.3
20260505033503 42 0 0.0 0.0 0.00 0.01 0.00 51 1008.2
20260505033003 42 0 0.0 0.0 0.00 0.01 0.00 52 1008.3
20260505032503 42 0 0.0 0.0 0.00 0.01 0.00 51 1008.3
20260505032003 42 0 0.0 0.0 0.00 0.01 0.00 51 1008.2
20260505031503 43 0 0.0 0.0 0.00 0.01 0.00 53 1008.1
20260505031003 43 0 0.0 0.0 0.00 0.01 0.00 53 1008.2
20260505030502 43 0 0.0 0.0 0.00 0.01 0.00 54 1008.1
20260505030003 44 0 0.0 0.0 0.00 0.01 0.00 56 1008.0
20260505025503 44 0 0.0 0.0 0.00 0.01 0.00 58 1008.0
20260505025003 44 0 0.0 0.0 0.00 0.01 0.00 58 1008.0
20260505024503 45 0 0.0 0.0 0.00 0.01 0.00 58 1008.0
20260505024024 45 146 0.0 1.0 0.00 0.01 0.00 58 1008.0
20260505023503 45 146 0.0 1.0 0.00 0.01 0.00 58 1008.1
20260505023003 45 236 0.0 1.0 0.00 0.01 0.00 57 1008.1
20260505022503 46 289 0.0 2.0 0.00 0.01 0.00 56 1008.1
20260505022003 46 313 0.0 2.0 0.00 0.01 0.00 54 1008.0
20260505021503 46 332 0.0 2.0 0.00 0.02 0.00 52 1008.0
20260505021003 46 317 0.0 2.0 0.00 0.02 0.00 50 1008.0
20260505020524 46 311 0.0 3.0 0.00 0.02 0.00 49 1008.0
20260505020002 47 308 0.0 4.0 0.00 0.02 0.00 48 1008.0
20260505015503 47 308 0.0 4.0 0.00 0.02 0.00 48 1008.0
20260505015003 47 314 0.0 3.0 0.00 0.02 0.00 47 1008.0
20260505014524 47 315 0.0 3.0 0.00 0.02 0.00 47 1008.1
20260505014003 47 315 1.0 7.0 0.00 0.02 0.00 46 1008.0
20260505013524 47 317 0.0 7.0 0.00 0.02 0.00 45 1007.9
20260505013003 47 322 0.0 2.0 0.00 0.02 0.00 45 1008.0
20260505012503 47 315 0.0 2.0 0.00 0.02 0.00 45 1008.0
20260505012003 47 310 0.0 2.0 0.00 0.02 0.00 45 1008.0
20260505011524 47 299 0.0 4.0 0.00 0.03 0.00 44 1008.1
20260505011024 48 301 1.0 8.0 0.00 0.03 0.00 44 1008.0
20260505010502 48 310 0.0 8.0 0.00 0.03 0.00 42 1008.0
20260505010002 47 314 0.0 4.0 0.00 0.03 0.00 42 1007.9
20260505005503 47 273 0.0 3.0 0.00 0.04 0.00 41 1008.0
20260505005003 48 300 0.0 3.0 0.00 0.04 0.00 41 1008.0
20260505004503 48 300 0.0 7.0 0.00 0.05 0.00 40 1008.1
20260505004024 48 285 0.0 7.0 0.00 0.05 0.00 38 1008.1
20260505003503 48 308 0.0 3.0 0.00 0.06 0.00 34 1008.2
20260505003003 48 305 0.0 3.0 0.00 0.06 0.00 33 1008.3
20260505002503 48 296 0.0 4.0 0.00 0.06 0.00 33 1008.1
20260505002003 48 303 1.0 4.0 0.00 0.06 0.00 33 1008.2
20260505001503 48 305 1.0 6.0 0.00 0.06 0.00 34 1008.2
20260505001003 48 305 1.0 8.0 0.00 0.07 0.00 34 1008.2
20260505000503 47 299 1.0 8.0 0.00 0.07 0.00 34 1008.3
20260505000024 47 303 1.0 7.0 0.00 0.07 0.00 35 1008.2
20260504235503 47 310 0.0 7.0 0.00 0.07 0.00 34 1008.2
20260504235023 47 308 0.0 8.0 0.00 0.07 0.00 35 1008.1
20260504234524 47 310 0.0 8.0 0.00 0.07 0.00 36 1008.1
20260504234003 47 221 0.0 3.0 0.00 0.08 0.00 37 1008.1
20260504233503 47 304 1.0 8.0 0.00 0.08 0.00 39 1008.1
20260504233003 47 306 1.0 8.0 0.00 0.08 0.00 39 1007.9
20260504232503 47 258 0.0 4.0 0.00 0.08 0.00 38 1007.9
20260504232003 47 291 0.0 2.0 0.00 0.08 0.00 36 1008.0
20260504231503 47 305 0.0 2.0 0.00 0.09 0.00 35 1008.1
20260504231003 47 302 0.0 6.0 0.00 0.09 0.00 35 1008.1
20260504230502 47 301 1.0 7.0 0.00 0.09 0.00 35 1008.1
20260504230003 47 300 1.0 7.0 0.00 0.09 0.00 34 1008.1
20260504225524 47 301 1.0 5.0 0.00 0.09 0.00 34 1008.1
20260504225002 47 303 1.0 5.0 0.00 0.09 0.00 33 1008.1
20260504224503 47 300 0.0 4.0 0.00 0.09 0.00 33 1008.1
20260504224003 47 298 0.0 7.0 0.00 0.09 0.00 33 1008.1
20260504223503 48 302 0.0 7.0 0.00 0.09 0.00 33 1008.1
20260504223003 48 272 0.0 5.0 0.00 0.09 0.00 33 1008.1
20260504222503 48 277 0.0 5.0 0.00 0.09 0.00 32 1008.1
20260504222003 48 298 0.0 5.0 0.00 0.09 0.00 33 1008.2
20260504221503 48 249 0.0 5.0 0.00 0.09 0.00 33 1008.2
20260504221003 48 227 0.0 5.0 0.00 0.09 0.00 33 1008.2
20260504220502 48 299 1.0 7.0 0.00 0.09 0.00 33 1008.2
20260504220004 48 301 1.0 7.0 0.00 0.09 0.00 34 1008.2
20260504215503 48 300 1.0 5.0 0.00 0.09 0.09 34 1008.3
20260504215003 48 298 0.0 5.0 0.00 0.09 0.09 34 1008.3
20260504214524 48 287 0.0 5.0 0.00 0.09 0.09 34 1008.2
20260504214003 48 195 0.0 3.0 0.00 0.09 0.09 35 1008.3
20260504213503 48 176 0.0 3.0 0.00 0.09 0.09 36 1008.3
20260504213003 48 305 0.0 7.0 0.00 0.09 0.09 35 1008.3
20260504212503 48 305 1.0 7.0 0.00 0.09 0.09 36 1008.3
20260504212003 48 307 1.0 4.0 0.00 0.09 0.09 37 1008.3
20260504211503 48 296 1.0 5.0 0.00 0.09 0.09 38 1008.3
20260504211003 48 295 0.0 5.0 0.00 0.09 0.09 38 1008.3
20260504210523 48 256 0.0 4.0 0.00 0.09 0.09 39 1008.3
20260504210003 48 193 0.0 5.0 0.00 0.09 0.09 40 1008.2
20260504205524 48 207 0.0 5.0 0.00 0.09 0.09 40 1008.2
20260504205023 48 262 0.0 3.0 0.00 0.09 0.09 39 1008.3
20260504204503 48 251 0.0 4.0 0.00 0.09 0.09 39 1008.3
20260504204003 48 292 0.0 5.0 0.00 0.09 0.09 40 1008.3
20260504203524 48 295 1.0 5.0 0.00 0.09 0.09 41 1008.3
20260504203003 48 300 1.0 6.0 0.00 0.09 0.09 43 1008.3
20260504202503 48 296 1.0 6.0 0.00 0.09 0.09 44 1008.3
20260504202003 48 292 1.0 6.0 0.00 0.09 0.09 45 1008.3
20260504201503 49 306 1.0 6.0 0.00 0.09 0.09 47 1008.4
20260504201024 49 307 1.0 6.0 0.00 0.09 0.09 48 1008.3
20260504200503 48 311 1.0 10.0 0.00 0.09 0.09 50 1008.5
20260504200003 49 275 1.0 7.0 0.00 0.09 0.09 51 1008.4
20260504195502 48 221 1.0 6.0 0.00 0.09 0.09 53 1008.4
20260504195003 48 247 1.0 6.0 0.00 0.09 0.09 54 1008.5
20260504194503 48 281 1.0 5.0 0.00 0.09 0.09 54 1008.5
20260504194003 48 284 1.0 5.0 0.00 0.09 0.09 55 1008.5
20260504193503 48 288 1.0 4.0 0.00 0.09 0.09 55 1008.5
20260504193024 48 218 0.0 6.0 0.00 0.09 0.09 56 1008.5
20260504192524 49 254 1.0 6.0 0.00 0.09 0.09 57 1008.5
20260504192003 48 297 1.0 4.0 0.00 0.09 0.09 58 1008.5
20260504191524 49 287 1.0 4.0 0.00 0.09 0.09 58 1008.5
20260504191003 49 292 1.0 4.0 0.00 0.09 0.09 59 1008.4
20260504190524 49 300 1.0 4.0 0.00 0.09 0.09 59 1008.4
20260504190003 49 293 1.0 3.0 0.00 0.09 0.09 59 1008.3
20260504185502 49 290 1.0 3.0 0.00 0.09 0.09 60 1008.4
20260504185003 49 291 1.0 5.0 0.00 0.09 0.09 61 1008.4
20260504184503 49 282 1.0 5.0 0.00 0.09 0.09 62 1008.4
20260504184003 49 259 1.0 6.0 0.00 0.09 0.09 63 1008.3
20260504183503 49 285 1.0 9.0 0.00 0.09 0.09 64 1008.3
20260504183024 49 293 1.0 9.0 0.00 0.09 0.09 65 1008.4
20260504182503 49 285 1.0 6.0 0.00 0.09 0.09 66 1008.3
20260504182003 49 265 1.0 6.0 0.00 0.09 0.09 66 1008.4
20260504181503 50 233 1.0 6.0 0.00 0.09 0.09 67 1008.3
20260504181003 50 298 1.0 5.0 0.00 0.09 0.09 67 1008.2
20260504180503 50 296 1.0 5.0 0.00 0.09 0.09 68 1008.1
20260504180003 51 277 1.0 5.0 0.00 0.09 0.09 68 1008.1
20260504175502 52 282 1.0 6.0 0.00 0.09 0.09 68 1008.1
20260504175003 52 275 1.0 6.0 0.00 0.09 0.09 68 1008.2
20260504174503 52 283 1.0 6.0 0.00 0.09 0.09 68 1008.1
20260504174024 53 266 1.0 8.0 0.00 0.09 0.09 68 1008.2
20260504173503 53 264 1.0 8.0 0.00 0.09 0.09 68 1008.1
20260504173003 53 278 1.0 4.0 0.00 0.09 0.09 68 1008.2
20260504172503 54 297 1.0 6.0 0.00 0.09 0.09 68 1008.2
20260504172003 54 302 1.0 6.0 0.00 0.09 0.09 68 1008.2
20260504171503 54 301 1.0 4.0 0.00 0.09 0.09 68 1008.2
20260504171024 54 299 1.0 3.0 0.00 0.09 0.09 68 1008.1
20260504170503 54 295 1.0 7.0 0.00 0.09 0.09 68 1008.1
20260504151003 58 287 2.0 6.0 0.00 0.09 0.09 48 1008.2
20260504150503 58 277 2.0 6.0 0.00 0.09 0.09 46 1008.2
20260504141003 58 262 1.0 6.0 0.00 0.09 0.09 48 1007.9
20260504140503 58 249 1.0 4.0 0.00 0.09 0.09 51 1008.0
20260504130503 58 233 1.0 6.0 0.00 0.09 0.09 62 1007.7
20260504110503 56 294 1.0 7.0 0.00 0.09 0.09 64 1006.5
20260504100503 54 300 1.0 5.0 0.00 0.09 0.09 63 1006.3
20260504082003 52 299 1.0 6.0 0.01 0.09 0.09 59 1005.6
20260504081503 52 293 1.0 6.0 0.01 0.09 0.09 60 1005.6
20260504081003 52 287 1.0 4.0 0.01 0.09 0.09 57 1005.4
20260504080503 52 297 1.0 5.0 0.01 0.09 0.09 59 1005.3